Tracking 20383 objects as of 23-Feb-2020
HD Live streaming from Space Station
objects crossing your sky now
Track the group of recently launched Starlink satellites

IRIDIUM 33 DEB

Track IRIDIUM 33 DEB now!
10-day predictions


NORAD ID: 35632
Int'l Code: 1997-051RE
Perigee: 743.0 km
Apogee: 880.8 km
Inclination: 86.4 °
Period: 101.0 minutes
Semi major axis: 7182 km
RCS: 0.0098 m2 (small)
Launch date: September 14, 1997
Source: United States (US)
Launch site: TYURATAM MISSILE AND SPACE COMPLEX (TTMTR)

Note: This is SATELLITE DEBRIS
aabbcc
Your satellite tracking list
Your tracking list is empty




NASA's NSSDC Master Catalog

Two Line Element Set (TLE):
1 35632U 97051RE  20053.65067737 +.00001462 +00000-0 +57600-3 0  9996
2 35632 086.4243 301.8679 0095891 282.7353 076.3134 14.26116508553319
Source of the keplerian elements: AFSPC